Time,TemperatureF,DewpointF,PressureIn,WindDirection,WindDirectionDegrees,WindSpeedMPH,WindSpeedGustMPH,Humidity,HourlyPrecipIn,Conditions,Clouds,dailyrainin,SoftwareType,DateUTC
2013-01-29 00:03:00,45.0,45.0,30.05,SSW,196,0.0,0.0,99,0.01,,,0.60,,2013-01-29 05:03:00,
2013-01-29 00:12:00,45.0,45.0,30.05,SSW,196,0.0,0.0,99,0.01,,,0.60,,2013-01-29 05:12:00,
2013-01-29 00:21:00,44.0,44.0,30.05,South,172,0.0,0.0,99,0.01,,,0.60,,2013-01-29 05:21:00,
2013-01-29 00:32:00,42.0,42.0,30.06,WNW,285,0.0,0.0,99,0.02,,,0.61,,2013-01-29 05:32:00,
2013-01-29 00:42:00,42.0,42.0,30.06,WNW,285,0.0,0.0,99,0.02,,,0.61,,2013-01-29 05:42:00,
2013-01-29 00:52:00,40.0,40.0,30.06,WNW,285,0.0,0.0,99,0.01,,,0.61,,2013-01-29 05:52:00,
2013-01-29 01:02:00,39.0,39.0,30.06,WNW,285,0.0,0.0,99,0.01,,,0.61,,2013-01-29 06:02:00,
2013-01-29 01:11:00,39.0,39.0,30.06,WNW,285,0.0,0.0,99,0.01,,,0.61,,2013-01-29 06:11:00,
2013-01-29 01:21:00,38.0,38.0,30.06,WNW,285,0.0,0.0,99,0.01,,,0.61,,2013-01-29 06:21:00,
2013-01-29 01:32:00,38.0,38.0,30.05,WNW,285,0.0,0.0,99,0.00,,,0.61,,2013-01-29 06:32:00,
2013-01-29 01:42:00,38.0,38.0,30.05,WNW,285,0.0,0.0,99,0.00,,,0.61,,2013-01-29 06:42:00,
2013-01-29 01:52:00,38.0,38.0,30.05,WNW,285,0.0,0.0,99,0.00,,,0.61,,2013-01-29 06:52:00,
2013-01-29 02:01:00,38.0,38.0,30.05,WNW,285,0.0,0.0,99,0.00,,,0.61,,2013-01-29 07:01:00,
2013-01-29 02:11:00,38.0,38.0,30.05,WNW,285,0.0,0.0,99,0.00,,,0.61,,2013-01-29 07:11:00,
2013-01-29 02:21:00,37.0,37.0,30.04,WNW,285,0.0,0.0,99,0.00,,,0.61,,2013-01-29 07:21:00,
2013-01-29 02:32:00,37.0,37.0,30.04,WNW,285,0.0,0.0,99,0.00,,,0.61,,2013-01-29 07:32:00,
2013-01-29 02:42:00,37.0,37.0,30.04,WNW,285,0.0,0.0,99,0.00,,,0.61,,2013-01-29 07:42:00,
2013-01-29 02:52:00,37.0,37.0,30.04,WNW,285,0.0,0.0,99,0.01,,,0.62,,2013-01-29 07:52:00,
2013-01-29 03:02:00,37.0,37.0,30.04,WNW,285,0.0,0.0,99,0.01,,,0.62,,2013-01-29 08:02:00,
2013-01-29 03:11:00,37.0,37.0,30.04,WNW,285,0.0,0.0,99,0.01,,,0.62,,2013-01-29 08:11:00,
2013-01-29 03:21:00,37.0,37.0,30.03,WNW,285,0.0,0.0,99,0.01,,,0.62,,2013-01-29 08:21:00,
2013-01-29 03:32:00,37.0,37.0,30.03,WNW,285,0.0,0.0,99,0.01,,,0.62,,2013-01-29 08:32:00,
2013-01-29 03:42:00,37.0,37.0,30.03,WNW,285,0.0,0.0,99,0.01,,,0.62,,2013-01-29 08:42:00,
2013-01-29 03:52:00,38.0,38.0,30.03,WNW,285,0.0,0.0,99,0.00,,,0.62,,2013-01-29 08:52:00,
2013-01-29 04:01:00,38.0,38.0,30.02,WNW,285,0.0,0.0,99,0.00,,,0.62,,2013-01-29 09:01:00,
2013-01-29 04:11:00,38.0,38.0,30.02,WNW,285,0.0,0.0,99,0.00,,,0.62,,2013-01-29 09:11:00,
2013-01-29 04:21:00,38.0,38.0,30.02,WNW,285,0.0,0.0,99,0.00,,,0.62,,2013-01-29 09:21:00,
2013-01-29 04:32:00,39.0,39.0,30.01,WNW,285,0.0,0.0,99,0.00,,,0.62,,2013-01-29 09:32:00,
2013-01-29 04:42:00,39.0,39.0,30.01,WNW,285,0.0,0.0,99,0.00,,,0.62,,2013-01-29 09:42:00,
2013-01-29 04:52:00,39.0,39.0,30.01,WNW,285,0.0,0.0,99,0.00,,,0.62,,2013-01-29 09:52:00,
2013-01-29 05:01:00,41.0,41.0,30.01,WNW,285,0.0,0.0,99,0.00,,,0.62,,2013-01-29 10:01:00,
2013-01-29 05:11:00,41.0,41.0,30.01,WNW,285,0.0,0.0,99,0.00,,,0.62,,2013-01-29 10:11:00,
2013-01-29 05:21:00,41.0,41.0,30.00,WNW,285,0.0,0.0,99,0.00,,,0.62,,2013-01-29 10:21:00,
2013-01-29 05:32:00,42.0,42.0,30.00,WNW,285,0.0,0.0,99,0.00,,,0.62,,2013-01-29 10:32:00,
2013-01-29 05:41:00,42.0,42.0,30.00,WNW,285,0.0,0.0,99,0.00,,,0.62,,2013-01-29 10:41:00,
2013-01-29 05:52:00,43.0,43.0,29.99,WNW,285,0.0,0.0,99,0.00,,,0.62,,2013-01-29 10:52:00,
2013-01-29 06:02:00,43.0,43.0,30.00,SE,136,0.0,0.0,99,0.00,,,0.62,,2013-01-29 11:02:00,
2013-01-29 06:11:00,43.0,43.0,30.00,SE,136,0.0,0.0,99,0.00,,,0.62,,2013-01-29 11:11:00,
2013-01-29 06:22:00,43.0,43.0,30.00,SE,136,0.0,0.0,99,0.00,,,0.62,,2013-01-29 11:22:00,
2013-01-29 06:32:00,44.0,44.0,29.98,ESE,113,0.0,3.0,99,0.00,,,0.62,,2013-01-29 11:32:00,
2013-01-29 06:42:00,44.0,44.0,29.98,ESE,113,0.0,3.0,99,0.00,,,0.62,,2013-01-29 11:42:00,
2013-01-29 06:52:00,44.0,44.0,29.98,South,177,0.0,5.0,99,0.00,,,0.62,,2013-01-29 11:52:00,
2013-01-29 07:03:00,44.0,44.0,29.98,SSE,161,0.0,0.0,99,0.00,,,0.62,,2013-01-29 12:03:00,
2013-01-29 07:12:00,45.0,45.0,29.98,SE,133,3.0,3.0,99,0.00,,,0.62,,2013-01-29 12:12:00,
2013-01-29 07:22:00,45.0,45.0,29.98,SE,133,3.0,3.0,99,0.00,,,0.62,,2013-01-29 12:22:00,
2013-01-29 07:33:00,45.0,45.0,29.97,SE,133,0.0,0.0,99,0.00,,,0.62,,2013-01-29 12:33:00,
2013-01-29 07:43:00,45.0,45.0,29.97,SE,133,0.0,0.0,99,0.00,,,0.62,,2013-01-29 12:43:00,
2013-01-29 07:53:00,45.0,45.0,29.97,ESE,120,4.0,4.0,99,0.00,,,0.62,,2013-01-29 12:53:00,
2013-01-29 08:02:00,45.0,45.0,29.97,South,175,4.0,5.0,99,0.00,,,0.62,,2013-01-29 13:02:00,
2013-01-29 08:12:00,45.0,45.0,29.97,South,175,4.0,5.0,99,0.00,,,0.62,,2013-01-29 13:12:00,
2013-01-29 08:22:00,46.0,46.0,29.97,SE,133,0.0,5.0,99,0.00,,,0.56,,2013-01-29 13:22:00,
2013-01-29 08:32:00,46.0,46.0,29.97,SE,125,0.0,0.0,99,0.00,,,0.56,,2013-01-29 13:32:00,
2013-01-29 08:42:00,46.0,46.0,29.97,SE,125,0.0,0.0,99,0.00,,,0.56,,2013-01-29 13:42:00,
2013-01-29 08:52:00,47.0,47.0,29.96,ESE,109,2.0,8.0,99,0.00,,,0.56,,2013-01-29 13:52:00,
2013-01-29 09:02:00,48.0,48.0,29.95,SE,146,0.0,10.0,99,0.00,,,0.56,,2013-01-29 14:02:00,
2013-01-29 09:12:00,48.0,48.0,29.95,SSE,161,0.0,6.0,99,0.00,,,0.47,,2013-01-29 14:12:00,
2013-01-29 09:22:00,48.0,48.0,29.95,SSE,161,0.0,6.0,99,0.00,,,0.47,,2013-01-29 14:22:00,
2013-01-29 09:33:00,48.0,48.0,29.94,SSE,156,3.0,7.0,99,0.00,,,0.47,,2013-01-29 14:33:00,
2013-01-29 09:43:00,48.0,48.0,29.94,SSE,156,3.0,7.0,99,0.00,,,0.47,,2013-01-29 14:43:00,
2013-01-29 09:53:00,48.0,48.0,29.94,SE,125,1.0,7.0,99,0.00,,,0.47,,2013-01-29 14:53:00,
2013-01-29 10:02:00,49.0,49.0,29.94,SE,144,6.0,6.0,99,0.00,,,0.47,,2013-01-29 15:02:00,
2013-01-29 10:12:00,49.0,49.0,29.94,SE,144,6.0,6.0,99,0.00,,,0.47,,2013-01-29 15:12:00,
2013-01-29 10:22:00,49.0,49.0,29.93,SE,133,0.0,3.0,99,0.00,,,0.37,,2013-01-29 15:22:00,
2013-01-29 10:33:00,49.0,49.0,29.93,South,174,0.0,4.0,99,0.00,,,0.37,,2013-01-29 15:33:00,
2013-01-29 10:43:00,49.0,49.0,29.93,South,174,0.0,4.0,99,0.00,,,0.37,,2013-01-29 15:43:00,
2013-01-29 10:53:00,49.0,49.0,29.93,ESE,123,0.0,5.0,99,0.00,,,0.37,,2013-01-29 15:53:00,
2013-01-29 11:02:00,50.0,50.0,29.92,SE,127,2.0,4.0,99,0.00,,,0.37,,2013-01-29 16:02:00,
2013-01-29 11:12:00,50.0,50.0,29.92,SE,127,2.0,4.0,99,0.00,,,0.37,,2013-01-29 16:12:00,
2013-01-29 11:23:00,51.0,51.0,29.93,SW,215,4.0,17.0,99,0.00,,,0.26,,2013-01-29 16:23:00,
2013-01-29 11:32:00,51.0,51.0,29.93,South,174,3.0,9.0,99,0.00,,,0.26,,2013-01-29 16:32:00,
2013-01-29 11:43:00,51.0,51.0,29.93,South,174,3.0,9.0,99,0.00,,,0.26,,2013-01-29 16:43:00,
2013-01-29 11:53:00,51.0,51.0,29.93,West,268,0.0,10.0,99,0.00,,,0.26,,2013-01-29 16:53:00,
2013-01-29 12:03:00,52.0,52.0,29.92,SW,217,3.0,6.0,99,0.00,,,0.26,,2013-01-29 17:03:00,
2013-01-29 12:12:00,52.0,52.0,29.92,SW,217,3.0,6.0,99,0.00,,,0.26,,2013-01-29 17:12:00,
2013-01-29 12:22:00,52.0,52.0,29.91,SE,146,0.0,8.0,99,0.00,,,0.15,,2013-01-29 17:22:00,
2013-01-29 12:33:00,52.0,52.0,29.91,SSE,153,2.0,6.0,99,0.00,,,0.15,,2013-01-29 17:33:00,
2013-01-29 12:42:00,52.0,52.0,29.91,SSE,153,2.0,6.0,99,0.00,,,0.15,,2013-01-29 17:42:00,
2013-01-29 12:52:00,52.0,52.0,29.90,SSW,199,0.0,11.0,99,0.00,,,0.15,,2013-01-29 17:52:00,
2013-01-29 13:04:00,53.0,53.0,29.89,SSW,208,4.0,9.0,99,0.00,,,0.15,,2013-01-29 18:04:00,
2013-01-29 13:12:00,53.0,53.0,29.89,SSW,208,4.0,9.0,99,0.00,,,0.15,,2013-01-29 18:12:00,
2013-01-29 13:22:00,53.0,53.0,29.88,SSW,199,0.0,8.0,99,0.00,,,0.08,,2013-01-29 18:22:00,
2013-01-29 13:33:00,53.0,53.0,29.88,SSW,192,3.0,7.0,99,0.00,,,0.08,,2013-01-29 18:33:00,
2013-01-29 13:42:00,53.0,53.0,29.88,SSW,192,3.0,7.0,99,0.00,,,0.08,,2013-01-29 18:42:00,
2013-01-29 13:52:00,53.0,53.0,29.88,SSE,157,0.0,3.0,99,0.01,,,0.09,,2013-01-29 18:52:00,
2013-01-29 14:02:00,53.0,53.0,29.88,SE,130,0.0,6.0,99,0.03,,,0.11,,2013-01-29 19:02:00,
2013-01-29 14:12:00,53.0,53.0,29.88,SE,130,0.0,6.0,99,0.03,,,0.11,,2013-01-29 19:12:00,
2013-01-29 14:22:00,53.0,53.0,29.88,SSE,158,0.0,0.0,99,0.03,,,0.11,,2013-01-29 19:22:00,
2013-01-29 14:33:00,53.0,53.0,29.87,SSE,165,0.0,0.0,99,0.03,,,0.07,,2013-01-29 19:33:00,
2013-01-29 14:42:00,53.0,53.0,29.87,SSE,165,0.0,0.0,99,0.03,,,0.07,,2013-01-29 19:42:00,
2013-01-29 14:52:00,54.0,54.0,29.87,SE,125,0.0,0.0,99,0.02,,,0.07,,2013-01-29 19:52:00,
2013-01-29 15:03:00,54.0,54.0,29.86,SSE,149,0.0,0.0,99,0.00,,,0.07,,2013-01-29 20:03:00,
2013-01-29 15:12:00,54.0,54.0,29.86,SSE,149,0.0,0.0,99,0.00,,,0.07,,2013-01-29 20:12:00,
2013-01-29 15:22:00,54.0,54.0,29.86,ESE,109,4.0,4.0,99,0.00,,,0.07,,2013-01-29 20:22:00,
2013-01-29 15:33:00,55.0,55.0,29.86,South,177,0.0,4.0,99,0.00,,,0.07,,2013-01-29 20:33:00,
2013-01-29 15:42:00,55.0,55.0,29.86,South,177,0.0,4.0,99,0.00,,,0.07,,2013-01-29 20:42:00,
2013-01-29 15:53:00,55.0,55.0,29.87,SSW,206,4.0,8.0,99,0.01,,,0.08,,2013-01-29 20:53:00,
2013-01-29 16:03:00,55.0,55.0,29.86,SE,143,3.0,8.0,99,0.02,,,0.09,,2013-01-29 21:03:00,
2013-01-29 16:12:00,55.0,55.0,29.86,SE,143,3.0,8.0,99,0.02,,,0.09,,2013-01-29 21:12:00,
2013-01-29 16:22:00,55.0,55.0,29.86,South,187,2.0,4.0,99,0.03,,,0.10,,2013-01-29 21:22:00,
2013-01-29 16:33:00,55.0,55.0,29.86,SE,142,3.0,9.0,99,0.03,,,0.10,,2013-01-29 21:33:00,
2013-01-29 16:42:00,55.0,55.0,29.86,SE,142,3.0,9.0,99,0.03,,,0.10,,2013-01-29 21:42:00,
2013-01-29 16:52:00,54.0,54.0,29.86,SSE,163,3.0,5.0,99,0.05,,,0.12,,2013-01-29 21:52:00,
2013-01-29 17:03:00,54.0,54.0,29.86,SW,219,4.0,5.0,99,0.11,,,0.20,,2013-01-29 22:03:00,
2013-01-29 17:12:00,54.0,54.0,29.86,SW,219,4.0,5.0,99,0.11,,,0.20,,2013-01-29 22:12:00,
2013-01-29 17:22:00,54.0,54.0,29.86,South,181,0.0,5.0,99,0.10,,,0.20,,2013-01-29 22:22:00,
2013-01-29 17:33:00,54.0,54.0,29.85,ESE,119,0.0,0.0,99,0.11,,,0.21,,2013-01-29 22:33:00,
2013-01-29 17:42:00,54.0,54.0,29.85,ESE,119,0.0,0.0,99,0.11,,,0.21,,2013-01-29 22:42:00,
2013-01-29 17:53:00,54.0,54.0,29.84,SE,125,0.0,7.0,99,0.15,,,0.26,,2013-01-29 22:53:00,
2013-01-29 18:02:00,54.0,54.0,29.85,SE,135,0.0,0.0,99,0.12,,,0.26,,2013-01-29 23:02:00,
2013-01-29 18:12:00,54.0,54.0,29.85,SE,135,0.0,0.0,99,0.12,,,0.26,,2013-01-29 23:12:00,
2013-01-29 18:23:00,53.0,53.0,29.83,ENE,74,0.0,0.0,99,0.06,,,0.26,,2013-01-29 23:23:00,
2013-01-29 18:33:00,53.0,53.0,29.82,ENE,60,0.0,4.0,99,0.07,,,0.27,,2013-01-29 23:33:00,
2013-01-29 18:42:00,53.0,53.0,29.82,ENE,60,0.0,4.0,99,0.07,,,0.27,,2013-01-29 23:42:00,
2013-01-29 18:53:00,53.0,53.0,29.81,ENE,64,0.0,0.0,99,0.02,,,0.27,,2013-01-29 23:53:00,
2013-01-29 19:03:00,53.0,53.0,29.82,ENE,64,0.0,0.0,99,0.01,,,0.27,,2013-01-30 00:03:00,
2013-01-29 19:12:00,53.0,53.0,29.82,ENE,64,0.0,0.0,99,0.01,,,0.27,,2013-01-30 00:12:00,
2013-01-29 19:22:00,53.0,53.0,29.81,ENE,64,0.0,0.0,99,0.01,,,0.27,,2013-01-30 00:22:00,
2013-01-29 19:32:00,53.0,53.0,29.81,ENE,64,0.0,0.0,99,0.00,,,0.27,,2013-01-30 00:32:00,
2013-01-29 19:43:00,53.0,53.0,29.81,ENE,64,0.0,0.0,99,0.00,,,0.27,,2013-01-30 00:43:00,
2013-01-29 19:52:00,53.0,53.0,29.80,ESE,113,0.0,4.0,99,0.00,,,0.27,,2013-01-30 00:52:00,
2013-01-29 20:02:00,53.0,53.0,29.80,ESE,113,0.0,0.0,99,0.00,,,0.27,,2013-01-30 01:02:00,
2013-01-29 20:12:00,53.0,53.0,29.80,ESE,113,0.0,0.0,99,0.00,,,0.27,,2013-01-30 01:12:00,
2013-01-29 20:22:00,52.0,52.0,29.80,NE,54,0.0,6.0,99,0.00,,,0.26,,2013-01-30 01:22:00,
2013-01-29 20:32:00,53.0,53.0,29.79,ESE,119,0.0,5.0,99,0.00,,,0.26,,2013-01-30 01:32:00,
2013-01-29 20:42:00,53.0,53.0,29.79,ESE,119,0.0,5.0,99,0.00,,,0.26,,2013-01-30 01:42:00,
2013-01-29 20:52:00,53.0,53.0,29.79,SE,132,0.0,5.0,99,0.00,,,0.26,,2013-01-30 01:52:00,
2013-01-29 21:02:00,52.0,52.0,29.78,SW,223,5.0,10.0,99,0.00,,,0.26,,2013-01-30 02:02:00,
2013-01-29 21:12:00,53.0,53.0,29.78,East,99,0.0,10.0,99,0.00,,,0.26,,2013-01-30 02:12:00,
2013-01-29 21:22:00,53.0,53.0,29.78,East,99,0.0,10.0,99,0.00,,,0.26,,2013-01-30 02:22:00,
2013-01-29 21:33:00,53.0,53.0,29.77,ESE,123,6.0,10.0,99,0.00,,,0.26,,2013-01-30 02:33:00,
2013-01-29 21:42:00,53.0,53.0,29.77,ESE,123,6.0,10.0,99,0.00,,,0.26,,2013-01-30 02:42:00,
2013-01-29 21:53:00,53.0,53.0,29.76,ESE,105,6.0,7.0,99,0.00,,,0.26,,2013-01-30 02:53:00,
2013-01-29 22:03:00,54.0,54.0,29.75,SSW,192,5.0,10.0,99,0.00,,,0.26,,2013-01-30 03:03:00,
2013-01-29 22:12:00,54.0,54.0,29.75,SSW,192,5.0,10.0,99,0.00,,,0.26,,2013-01-30 03:12:00,
2013-01-29 22:22:00,54.0,54.0,29.74,SE,140,5.0,11.0,99,0.00,,,0.25,,2013-01-30 03:22:00,
2013-01-29 22:32:00,55.0,55.0,29.73,SSW,208,7.0,13.0,99,0.00,,,0.25,,2013-01-30 03:32:00,
2013-01-29 22:42:00,55.0,55.0,29.73,SSW,208,7.0,13.0,99,0.00,,,0.25,,2013-01-30 03:42:00,
2013-01-29 22:52:00,55.0,55.0,29.73,SW,234,6.0,10.0,99,0.00,,,0.25,,2013-01-30 03:52:00,
2013-01-29 23:02:00,55.0,55.0,29.72,SW,232,3.0,7.0,99,0.00,,,0.25,,2013-01-30 04:02:00,
2013-01-29 23:12:00,55.0,55.0,29.72,SW,232,3.0,7.0,99,0.00,,,0.25,,2013-01-30 04:12:00,
2013-01-29 23:22:00,55.0,55.0,29.72,SSE,151,4.0,10.0,99,0.00,,,0.24,,2013-01-30 04:22:00,
2013-01-29 23:32:00,55.0,55.0,29.72,SSE,151,4.0,10.0,99,0.00,,,0.24,,2013-01-30 04:32:00,
2013-01-29 23:41:00,55.0,55.0,29.72,SSE,151,4.0,10.0,99,0.00,,,0.24,,2013-01-30 04:41:00,
2013-01-29 23:52:00,56.0,56.0,29.70,South,174,0.0,9.0,99,0.00,,,0.24,,2013-01-30 04:52:00,